Location: Betra
(48.4113°N, 8.6634°E)
Time: 05:28:15
(UTC+00:00)

SAR-Lupe-4 - Pass Details

Date: 09 August 2024
Orbit: 473 x 479 km, 98.1° (Epoch: 30 August)

Event Time Altitude Azimuth Distance (km) Brightness Sun altitude
Rises 03:19:44 0° 7° (N) 2,542 7.9 -8.2°
Reaches altitude 10° 03:21:52 10° 1° (N) 1,659 6.8 -7.9°
Maximum altitude 03:25:14 42° 290° (WNW) 700 4.1 -7.5°
Drops below altitude 10° 03:28:36 10° 219° (SW) 1,649 5.6 -7.0°
Enters shadow 03:29:03 - 216° (SW) 1,837 5.9 -7.0°
